Location: *
(50.3194°N, 7.1067°E)
Time: 09:58:10
(UTC+00:00)

Cosmos 2237 Rocket - Pass Details

Date: 22 September 2019
Orbit: 833 x 852 km, 71.0° (Epoch: 22 October)

Event Time Altitude Azimuth Distance (km) Brightness Sun altitude
Rises 18:41:30 0° 329° (NNW) 3,427 6.1 -12.0°
Reaches altitude 10° 18:43:59 10° 326° (NW) 2,488 5.4 -12.4°
Maximum altitude 18:49:38 65° 246° (WSW) 935 2.6 -13.3°
Drops below altitude 10° 18:55:15 10° 166° (SSE) 2,474 4.3 -14.1°
Enters shadow 18:57:15 - 164° (SSE) 3,231 4.9 -14.4°
